| time (UTC) | temp F | wind direction | speed MPH | gust MPH | rain 1hr in | rain 24hr in | rain mn in | humidity % | barometer mb |
| 20260901161900 | 89 | 24 | 2.0 | 10.0 | 0.00 | 0.00 | 0.00 | 39 | 1013.4 |
| 20260901160406 | 90 | 158 | 2.0 | 6.0 | 0.00 | 0.00 | 0.00 | 38 | 1013.5 |
| 20260901154902 | 90 | 313 | 2.0 | 6.0 | 0.00 | 0.00 | 0.00 | 37 | 1013.4 |
| 20260901153403 | 91 | 48 | 0.0 | 6.0 | 0.00 | 0.00 | 0.00 | 36 | 1013.4 |
| 20260901151901 | 91 | 59 | 2.0 | 6.0 | 0.00 | 0.00 | 0.00 | 35 | 1013.4 |
| 20260901150407 | 92 | 31 | 2.0 | 6.0 | 0.00 | 0.00 | 0.00 | 35 | 1013.5 |
| 20260901143403 | 93 | 307 | 1.0 | 6.0 | 0.00 | 0.00 | 0.00 | 34 | 1013.5 |
| 20260901141903 | 92 | 329 | 2.0 | 7.0 | 0.00 | 0.00 | 0.00 | 34 | 1013.7 |
| 20260901134903 | 93 | 0 | 1.0 | 3.0 | 0.00 | 0.00 | 0.00 | 34 | 1013.7 |
| 20260901133403 | 93 | 293 | 0.0 | 5.0 | 0.00 | 0.00 | 0.00 | 34 | 1013.7 |
| 20260901131901 | 93 | 172 | 3.0 | 10.0 | 0.00 | 0.00 | 0.00 | 34 | 1013.5 |
| 20260901130407 | 93 | 309 | 1.0 | 7.0 | 0.00 | 0.00 | 0.00 | 34 | 1013.7 |
| 20260901124901 | 93 | 10 | 2.0 | 5.0 | 0.00 | 0.00 | 0.00 | 33 | 1013.7 |
| 20260901123402 | 94 | 45 | 2.0 | 10.0 | 0.00 | 0.00 | 0.00 | 32 | 1014.1 |
| 20260901121901 | 94 | 1 | 2.0 | 5.0 | 0.00 | 0.00 | 0.00 | 33 | 1014.2 |
| 20260901120404 | 92 | 327 | 2.0 | 5.0 | 0.00 | 0.00 | 0.00 | 33 | 1014.3 |
| 20260901114905 | 94 | 186 | 7.0 | 14.0 | 0.00 | 0.00 | 0.00 | 33 | 1014.2 |
| 20260901113404 | 93 | 354 | 2.0 | 11.0 | 0.00 | 0.00 | 0.00 | 33 | 1014.3 |
| 20260901111903 | 0 | 0.0 | 12.0 | 0.00 | 0.00 | 0.00 | 1014.2 | ||
| 20260901110413 | 94 | 305 | 8.0 | 10.0 | 0.00 | 0.00 | 0.00 | 33 | 1014.1 |
| 20260901104903 | 0 | 0.0 | 0.0 | 0.00 | 0.00 | 0.00 | 1014.3 | ||
| 20260901101900 | 0 | 0.0 | 0.0 | 0.00 | 0.00 | 0.00 | 1014.5 | ||
| 20260901100402 | 0 | 0.0 | 0.0 | 0.00 | 0.00 | 0.00 | 1014.6 | ||
| 20260901094901 | 0 | 0.0 | 14.0 | 0.00 | 0.00 | 0.00 | 1014.5 | ||
| 20260901093407 | 91 | 7 | 3.0 | 12.0 | 0.00 | 0.00 | 0.00 | 33 | 1014.6 |
| 20260901091900 | 90 | 55 | 6.0 | 13.0 | 0.00 | 0.00 | 0.00 | 35 | 1014.6 |
| 20260901090404 | 90 | 0 | 7.0 | 14.0 | 0.00 | 0.00 | 0.00 | 36 | 1014.5 |
| 20260901084910 | 89 | 354 | 6.0 | 13.0 | 0.00 | 0.00 | 0.00 | 36 | 1014.6 |
| 20260901083403 | 89 | 336 | 5.0 | 13.0 | 0.00 | 0.00 | 0.00 | 37 | 1014.7 |
| 20260901080405 | 89 | 316 | 2.0 | 7.0 | 0.00 | 0.00 | 0.00 | 39 | 1014.6 |
| 20260901074901 | 88 | 358 | 3.0 | 12.0 | 0.00 | 0.00 | 0.00 | 39 | 1014.6 |
| 20260901073402 | 87 | 329 | 2.0 | 11.0 | 0.00 | 0.00 | 0.00 | 41 | 1014.5 |
| 20260901071901 | 86 | 1 | 4.0 | 10.0 | 0.00 | 0.00 | 0.00 | 40 | 1014.5 |
| 20260901070402 | 85 | 0 | 3.0 | 6.0 | 0.00 | 0.00 | 0.00 | 43 | 1014.3 |
| 20260901064903 | 84 | 296 | 1.0 | 6.0 | 0.00 | 0.00 | 0.00 | 44 | 1014.2 |
| 20260901063403 | 83 | 114 | 2.0 | 6.0 | 0.00 | 0.00 | 0.00 | 45 | 1014.4 |
| 20260901060402 | 82 | 32 | 0.0 | 3.0 | 0.00 | 0.00 | 0.00 | 47 | 1014.5 |
| 20260901054900 | 82 | 340 | 0.0 | 4.0 | 0.00 | 0.00 | 0.00 | 47 | 1014.5 |
| 20260901053403 | 81 | 341 | 2.0 | 5.0 | 0.00 | 0.00 | 0.00 | 47 | 1014.5 |
| 20260901051901 | 80 | 329 | 1.0 | 3.0 | 0.00 | 0.00 | 0.00 | 47 | 1014.4 |
| 20260901050403 | 79 | 0 | 0.0 | 0.0 | 0.00 | 0.00 | 0.00 | 49 | 1014.3 |
| 20260901044901 | 78 | 0 | 0.0 | 0.0 | 0.00 | 0.00 | 0.00 | 49 | 1014.3 |
| 20260901043404 | 78 | 11 | 0.0 | 0.0 | 0.00 | 0.00 | 0.00 | 47 | 1014.2 |
| 20260901041908 | 79 | 326 | 0.0 | 0.0 | 0.00 | 0.00 | 0.00 | 47 | 1014.1 |
| 20260901040412 | 79 | 243 | 0.0 | 0.0 | 0.00 | 0.00 | 0.00 | 47 | 1014.1 |
| 20260901033407 | 79 | 241 | 0.0 | 2.0 | 0.00 | 0.00 | 0.00 | 46 | 1013.8 |
| 20260901031906 | 79 | 203 | 1.0 | 2.0 | 0.00 | 0.00 | 0.00 | 46 | 1013.8 |
| 20260901030409 | 79 | 152 | 0.0 | 0.0 | 0.00 | 0.00 | 0.00 | 46 | 1013.9 |
| 20260901024902 | 79 | 168 | 0.0 | 0.0 | 0.00 | 0.00 | 0.00 | 45 | 1013.8 |
| 20260901023412 | 80 | 264 | 0.0 | 0.0 | 0.00 | 0.00 | 0.00 | 44 | 1013.8 |
| 20260901021904 | 81 | 347 | 0.0 | 0.0 | 0.00 | 0.00 | 0.00 | 43 | 1013.8 |
| 20260901020404 | 81 | 27 | 0.0 | 3.0 | 0.00 | 0.00 | 0.00 | 43 | 1013.7 |
| 20260901014900 | 80 | 63 | 0.0 | 3.0 | 0.00 | 0.00 | 0.00 | 42 | 1013.7 |
| 20260901011858 | 81 | 354 | 0.0 | 3.0 | 0.00 | 0.00 | 0.00 | 42 | 1013.8 |
| 20260901004858 | 81 | 47 | 0.0 | 4.0 | 0.00 | 0.00 | 0.00 | 41 | 1013.8 |
| 20260901001901 | 81 | 133 | 0.0 | 2.0 | 0.00 | 0.00 | 0.00 | 41 | 1013.7 |
| 20260901000402 | 81 | 48 | 0.0 | 5.0 | 0.00 | 0.00 | 0.00 | 41 | 1013.8 |
| 20260831234902 | 81 | 10 | 0.0 | 3.0 | 0.00 | 0.00 | 0.00 | 41 | 1014.0 |
| 20260831231858 | 82 | 16 | 0.0 | 4.0 | 0.00 | 0.00 | 0.00 | 40 | 1014.2 |
| 20260831223401 | 81 | 72 | 0.0 | 4.0 | 0.00 | 0.00 | 0.00 | 40 | 1014.6 |
| 20260831221858 | 82 | 109 | 0.0 | 4.0 | 0.00 | 0.00 | 0.00 | 40 | 1014.7 |
| 20260831213359 | 82 | 0 | 0.0 | 2.0 | 0.00 | 0.00 | 0.00 | 40 | 1015.0 |
| 20260831211857 | 82 | 327 | 0.0 | 2.0 | 0.00 | 0.00 | 0.00 | 42 | 1015.0 |
| 20260831210358 | 82 | 1 | 0.0 | 2.0 | 0.00 | 0.00 | 0.00 | 43 | 1014.9 |
| 20260831204856 | 82 | 32 | 1.0 | 3.0 | 0.00 | 0.00 | 0.00 | 43 | 1014.8 |
| 20260831201859 | 82 | 351 | 0.0 | 3.0 | 0.00 | 0.00 | 0.00 | 42 | 1014.8 |
| 20260831194853 | 83 | 343 | 1.0 | 3.0 | 0.00 | 0.00 | 0.00 | 42 | 1014.7 |
| 20260831193400 | 83 | 25 | 0.0 | 2.0 | 0.00 | 0.00 | 0.00 | 42 | 1014.7 |
| 20260831191851 | 83 | 1 | 0.0 | 1.0 | 0.00 | 0.00 | 0.00 | 42 | 1014.5 |
| 20260831190352 | 84 | 0 | 0.0 | 0.0 | 0.00 | 0.00 | 0.00 | 42 | 1014.4 |
| 20260831183356 | 84 | 10 | 0.0 | 0.0 | 0.00 | 0.00 | 0.00 | 42 | 1014.0 |
| 20260831181851 | 85 | 62 | 0.0 | 0.0 | 0.00 | 0.00 | 0.00 | 42 | 1014.0 |
| 20260831180357 | 85 | 14 | 0.0 | 0.0 | 0.00 | 0.00 | 0.00 | 41 | 1013.9 |
| 20260831171852 | 87 | 0 | 0.0 | 2.0 | 0.00 | 0.00 | 0.00 | 39 | 1013.7 |
| 20260831170353 | 87 | 24 | 0.0 | 2.0 | 0.00 | 0.00 | 0.00 | 39 | 1013.6 |